QPF
0.00 0.00 0.00 0.00 0.00 0.00 0.00 0.00 0.00 0.00 0.00 0.00 0.00 0.00 0.00 0.00 0.00 0.00 0.00 0.00 0.00 0.00 0.00 0.00 0.00 0.00 0.00 0.00 0.00 0.00 0.00 0.00 0.00 0.00 0.00 0.00 0.00 0.00 0.00 0.00 0.00 0.00 0.00 0.00 0.00
0.00 0.00 0.00 0.00 0.00 0.00 0.00 0.00 0.00 0.00 0.00 0.00 0.00 0.00 0.00 0.01 0.01 0.00 0.00 0.00 0.00 0.00 0.00 0.00 0.00 0.00 0.00 0.00 0.00 0.00 0.00 0.00 0.00 0.00 0.00 0.00 0.00 0.00 0.00 0.00 0.00 0.00 0.00 0.00 0.00
0.00 0.00 0.00 0.00 0.00 0.00 0.00 0.00 0.00 0.00 0.00 0.00 0.00 0.00 0.00 0.01 0.00 0.00 0.00 0.00 0.00 0.00 0.00 0.00 0.00 0.00 0.00 0.00 0.00 0.00 0.00 0.00 0.00 0.00 0.00 0.00 0.00 0.00 0.00 0.00 0.00 0.00 0.00 0.00 0.00
0.00 0.00 0.00 0.00 0.00 0.00 0.00 0.00 0.00 0.00 0.00 0.00 0.00 0.00 0.00 0.01 0.00 0.00 0.00 0.00 0.00 0.00 0.00 0.00 0.00 0.00 0.00 0.00 0.00 0.00 0.00 0.00 0.00 0.00 0.00 0.00 0.00 0.00 0.00 0.00 0.00 0.00 0.00 0.00 0.00
0.00 0.00 0.00 0.00 0.00 0.00 0.00 0.00 0.00 0.00 0.00 0.00 0.00 0.00 0.00 0.01 0.00 0.00 0.00 0.00 0.00 0.00 0.00 0.00 0.00 0.00 0.00 0.00 0.00 0.00 0.00 0.00 0.00 0.00 0.00 0.00 0.00 0.00 0.00 0.00 0.00 0.00 0.00 0.00 0.00
0.00 0.00 0.00 0.00 0.00 0.00 0.00 0.00 0.00 0.00 0.00 0.00 0.00 0.00 0.00 0.00 0.00 0.00 0.00 0.00 0.00 0.00 0.00 0.00 0.00 0.00 0.00 0.00 0.00 0.00 0.00 0.00 0.00 0.00 0.00 0.00 0.00 0.00 0.00 0.00 0.00 0.00 0.00 0.00 0.00
0.00 0.00 0.00 0.00 0.00 0.00 0.00 0.00 0.00 0.00 0.00 0.00 0.00 0.00 0.00 0.00 0.00 0.00 0.00 0.00 0.00 0.00 0.00 0.00 0.00 0.00 0.00 0.00 0.00 0.00 0.00 0.00 0.00 0.00 0.00 0.00 0.00 0.00 0.00 0.00 0.00 0.00 0.00 0.00 0.00
0.00 0.00 0.01 0.00 0.00 0.00 0.00 0.00 0.00 0.00 0.00 0.00 0.00 0.00 0.00 0.00 0.00 0.00 0.00 0.00 0.00 0.00 0.00 0.00 0.00 0.00 0.00 0.00 0.00 0.00 0.00 0.00 0.00 0.00 0.00 0.00 0.00 0.00 0.00 0.00 0.00 0.00 0.00 0.00 0.00
0.00 0.01 0.01 0.01 0.00 0.00 0.00 0.00 0.00 0.00 0.00 0.00 0.00 0.00 0.00 0.00 0.00 0.00 0.00 0.00 0.00 0.00 0.00 0.00 0.00 0.00 0.00 0.00 0.00 0.00 0.00 0.00 0.00 0.00 0.00 0.00 0.00 0.00 0.00 0.00 0.00 0.00 0.00 0.00 0.00
0.00 0.00 0.01 0.01 0.00 0.00 0.00 0.00 0.00 0.00 0.00 0.01 0.03 0.01 0.00 0.00 0.00 0.00 0.00 0.00 0.00 0.00 0.00 0.00 0.00 0.00 0.00 0.00 0.00 0.00 0.00 0.00 0.00 0.00 0.00 0.00 0.00 0.00 0.00 0.00 0.00 0.00 0.00 0.00 0.00
0.00 0.00 0.00 0.00 0.00 0.00 0.00 0.00 0.00 0.00 0.00 0.00 0.00 0.00 0.00 0.00 0.00 0.00 0.00 0.00 0.00 0.00 0.00 0.00 0.00 0.00 0.00 0.00 0.00 0.00 0.00 0.00 0.00 0.00 0.00 0.00 0.00 0.00 0.00 0.00 0.00 0.00 0.00 0.00 0.00
0.00 0.00 0.00 0.00 0.00 0.00 0.00 0.00 0.00 0.01 0.00 0.00 0.00 0.00 0.00 0.00 0.00 0.00 0.00 0.00 0.00 0.00 0.00 0.00 0.00 0.00 0.00 0.00 0.00 0.00 0.00 0.00 0.00 0.00 0.00 0.00 0.00 0.00 0.00 0.00 0.00 0.00 0.00 0.00 0.00
0.00 0.00 0.00 0.01 0.00 0.00 0.00 0.00 0.00 0.00 0.01 0.00 0.00 0.00 0.00 0.00 0.00 0.00 0.00 0.00 0.00 0.00 0.00 0.00 0.00 0.00 0.00 0.00 0.00 0.00 0.00 0.00 0.00 0.00 0.00 0.00 0.00 0.00 0.00 0.00 0.00 0.00 0.00 0.00 0.00
0.00 0.00 0.00 0.01 0.00 0.00 0.00 0.00 0.00 0.00 0.00 0.00 0.01 0.00 0.00 0.00 0.00 0.00 0.00 0.00 0.00 0.00 0.00 0.00 0.00 0.00 0.00 0.00 0.00 0.00 0.00 0.00 0.00 0.00 0.00 0.00 0.00 0.00 0.00 0.00 0.00 0.00 0.00 0.00 0.00
0.00 0.00 0.00 0.00 0.00 0.00 0.00 0.00 0.00 0.00 0.00 0.00 0.00 0.00 0.00 0.00 0.00 0.00 0.00 0.00 0.00 0.00 0.00 0.00 0.00 0.00 0.00 0.00 0.00 0.00 0.00 0.00 0.00 0.00 0.00 0.00 0.00 0.00 0.00 0.00 0.00 0.00 0.00 0.00 0.00
0.00 0.00 0.00 0.00 0.00 0.00 0.00 0.00 0.00 0.00 0.00 0.00 0.00 0.00 0.00 0.00 0.01 0.00 0.00 0.00 0.00 0.00 0.00 0.00 0.00 0.00 0.00 0.00 0.00 0.00 0.00 0.00 0.00 0.00 0.00 0.00 0.00 0.00 0.00 0.00 0.00 0.00 0.00 0.00 0.00
0.00 0.00 0.00 0.00 0.00 0.00 0.00 0.00 0.00 0.00 0.00 0.00 0.00 0.00 0.01 0.00 0.01 0.00 0.00 0.00 0.01 0.02 0.01 0.00 0.00 0.00 0.00 0.00 0.00 0.00 0.00 0.00 0.00 0.00 0.00 0.00 0.00 0.00 0.00 0.00 0.00 0.00 0.00 0.00 0.00
0.00 0.00 0.00 0.00 0.00 0.00 0.00 0.00 0.00 0.00 0.00 0.00 0.00 0.00 0.01 0.00 0.00 0.00 0.00 0.00 0.00 0.00 0.00 0.00 0.00 0.00 0.00 0.00 0.00 0.00 0.00 0.00 0.00 0.00 0.00 0.00 0.00 0.00 0.00 0.00 0.00 0.00 0.00 0.00 0.00
0.00 0.00 0.00 0.00 0.00 0.00 0.00 0.00 0.00 0.00 0.00 0.00 0.00 0.00 0.00 0.00 0.00 0.00 0.00 0.01 0.00 0.00 0.00 0.00 0.00 0.00 0.00 0.00 0.00 0.00 0.00 0.00 0.00 0.00 0.00 0.00 0.00 0.00 0.00 0.00 0.00 0.00 0.00 0.00 0.00
0.00 0.00 0.00 0.00 0.00 0.00 0.00 0.00 0.00 0.00 0.00 0.00 0.00 0.00 0.00 0.00 0.00 0.00 0.00 0.01 0.00 0.00 0.00 0.00 0.00 0.00 0.00 0.00 0.00 0.00 0.00 0.00 0.00 0.00 0.00 0.00 0.00 0.00 0.00 0.00 0.00 0.00 0.00 0.00 0.00
0.00 0.00 0.00 0.00 0.00 0.00 0.00 0.00 0.00 0.00 0.00 0.00 0.00 0.00 0.00 0.00 0.00 0.00 0.00 0.00 0.00 0.00 0.00 0.00 0.00 0.01 0.00 0.00 0.00 0.00 0.00 0.00 0.00 0.00 0.00 0.00 0.00 0.00 0.00 0.00 0.00 0.00 0.00 0.00 0.00
0.00 0.00 0.00 0.00 0.00 0.00 0.00 0.00 0.00 0.00 0.00 0.00 0.00 0.00 0.00 0.00 0.00 0.00 0.00 0.00 0.00 0.00 0.00 0.00 0.00 0.00 0.00 0.00 0.00 0.00 0.00 0.00 0.00 0.00 0.00 0.00 0.00 0.00 0.00 0.00 0.00 0.00 0.00 0.00 0.00
0.00 0.00 0.00 0.00 0.00 0.00 0.00 0.00 0.00 0.00 0.00 0.00 0.00 0.00 0.00 0.00 0.00 0.00 0.00 0.00 0.00 0.00 0.00 0.00 0.00 0.00 0.01 0.00 0.00 0.00 0.00 0.00 0.00 0.00 0.00 0.00 0.00 0.00 0.00 0.00 0.00 0.00 0.00 0.00 0.00
0.00 0.00 0.00 0.00 0.00 0.00 0.00 0.00 0.00 0.00 0.00 0.00 0.00 0.00 0.00 0.00 0.00 0.00 0.00 0.00 0.00 0.00 0.00 0.01 0.00 0.00 0.00 0.01 0.00 0.00 0.00 0.00 0.00 0.00 0.00 0.00 0.00 0.00 0.00 0.00 0.00 0.00 0.00 0.00 0.00
0.00 0.00 0.00 0.00 0.00 0.00 0.00 0.00 0.00 0.00 0.00 0.00 0.00 0.00 0.00 0.00 0.00 0.00 0.00 0.00 0.00 0.00 0.00 0.00 0.00 0.00 0.00 0.00 0.00 0.00 0.00 0.00 0.00 0.00 0.00 0.00 0.00 0.00 0.00 0.00 0.00 0.00 0.00 0.00 0.00
0.00 0.00 0.00 0.00 0.00 0.00 0.00 0.00 0.00 0.00 0.00 0.00 0.00 0.00 0.00 0.00 0.00 0.00 0.00 0.00 0.00 0.00 0.00 0.00 0.00 0.00 0.00 0.00 0.00 0.00 0.00 0.00 0.00 0.00 0.00 0.00 0.00 0.00 0.00 0.00 0.00 0.00 0.00 0.00 0.00
0.00 0.00 0.00 0.00 0.00 0.00 0.00 0.00 0.00 0.00 0.00 0.00 0.00 0.00 0.00 0.00 0.00 0.00 0.00 0.00 0.00 0.00 0.00 0.00 0.00 0.00 0.00 0.00 0.00 0.00 0.00 0.00 0.00 0.00 0.00 0.00 0.00 0.00 0.00 0.00 0.00 0.00 0.00 0.00 0.00
MSLP
1016.98 1016.45 1016.04 1015.60 1015.20 1014.76 1014.22 1013.76 1013.28 1012.94 1012.59 1012.07 1011.59 1011.11 1010.65 1010.11 1009.67 1009.30 1007.85 1006.51 1007.00 1006.96 1007.12 1007.73 1008.52 1008.67 1009.11 1009.61 1009.95 1010.08 1010.65 1009.68 1008.45 1007.81 1006.85 1006.77 1007.45 1006.60 1006.69 1007.53 1007.83 1008.33 1008.70 1008.97 1009.97
1017.10 1016.64 1016.16 1015.66 1015.20 1014.77 1014.31 1013.87 1013.20 1012.71 1012.31 1011.99 1011.46 1010.92 1010.43 1009.89 1009.16 1007.51 1005.82 1005.56 1005.61 1006.23 1007.25 1007.70 1008.36 1008.96 1009.06 1009.18 1009.42 1009.92 1009.58 1007.84 1006.76 1006.27 1006.22 1006.18 1006.41 1006.19 1006.89 1007.06 1007.87 1008.54 1009.27 1009.62 1010.27
1017.15 1016.69 1016.15 1015.62 1015.03 1014.52 1013.97 1013.38 1012.90 1012.39 1011.91 1011.43 1011.13 1010.80 1010.34 1009.88 1008.60 1003.90 1003.49 1004.06 1004.24 1005.01 1005.92 1006.54 1007.48 1008.47 1009.14 1008.80 1008.56 1008.13 1007.36 1006.30 1005.63 1005.47 1005.81 1005.86 1006.02 1005.87 1006.31 1006.92 1006.59 1007.19 1008.83 1009.76 1010.29
1017.34 1016.54 1016.12 1015.53 1014.94 1014.40 1013.80 1013.19 1012.64 1011.96 1011.44 1010.93 1010.65 1010.28 1010.20 1009.91 1007.47 1002.47 1001.85 1002.47 1002.91 1003.85 1005.18 1006.18 1007.11 1008.10 1008.37 1008.33 1007.65 1007.52 1005.87 1005.96 1005.03 1005.22 1005.40 1005.44 1005.32 1005.58 1005.65 1005.17 1005.24 1005.81 1007.12 1008.97 1009.94
1017.30 1016.65 1016.10 1015.53 1014.86 1014.11 1013.44 1012.71 1012.03 1011.27 1010.63 1010.25 1010.00 1009.86 1009.67 1008.18 1004.17 1002.10 1002.25 1002.41 1002.00 1003.51 1003.75 1004.59 1005.58 1006.16 1006.79 1007.14 1007.54 1007.06 1005.15 1005.07 1004.77 1005.21 1004.84 1005.05 1005.21 1005.20 1005.10 1004.71 1005.35 1006.06 1007.29 1008.29 1008.96
1017.21 1016.46 1015.86 1015.33 1014.75 1013.95 1013.15 1012.28 1011.33 1010.39 1009.57 1009.09 1008.96 1009.00 1009.13 1005.63 1003.73 1002.94 1002.55 1002.80 1002.77 1003.42 1003.65 1003.82 1003.70 1003.73 1004.90 1005.57 1006.03 1005.74 1006.07 1004.95 1004.76 1004.69 1005.11 1005.38 1005.03 1005.31 1004.48 1004.55 1005.57 1006.25 1006.71 1007.32 1007.74
1017.25 1016.37 1015.71 1014.98 1014.35 1013.46 1012.67 1011.93 1010.89 1009.64 1007.95 1007.83 1007.78 1007.94 1006.86 1002.22 1003.12 1002.68 1002.73 1002.54 1002.71 1002.59 1002.98 1002.88 1002.83 1003.30 1003.74 1004.64 1004.46 1004.79 1005.51 1005.67 1005.09 1004.89 1005.02 1005.56 1004.83 1003.47 1003.69 1004.37 1005.23 1005.91 1006.12 1006.65 1007.03
1017.02 1016.15 1015.37 1014.67 1013.78 1012.93 1012.19 1011.22 1010.03 1008.40 1007.44 1006.41 1005.98 1005.92 1004.31 1003.03 1002.90 1003.01 1002.93 1002.53 1002.43 1002.49 1002.38 1002.30 1002.85 1002.96 1003.30 1003.53 1004.32 1005.03 1005.21 1004.90 1004.28 1004.92 1004.81 1005.03 1002.38 1002.49 1003.06 1003.91 1004.54 1005.19 1005.63 1006.23 1006.44
1016.76 1015.96 1015.15 1014.20 1013.23 1012.36 1011.54 1010.47 1009.02 1007.39 1006.59 1005.21 1004.84 1005.18 1003.62 1002.13 1002.89 1002.28 1002.21 1002.15 1002.36 1002.35 1002.53 1002.42 1003.14 1003.13 1003.35 1003.34 1004.34 1004.25 1003.35 1003.71 1004.05 1004.30 1004.82 1004.77 1002.64 1002.04 1002.46 1003.43 1004.11 1004.45 1004.90 1005.46 1005.96
1016.58 1015.67 1014.83 1013.90 1012.77 1011.70 1010.98 1010.09 1008.58 1007.25 1006.65 1005.30 1005.05 1005.41 1003.85 1003.27 1003.09 1002.05 1001.60 1001.47 1001.89 1002.34 1002.54 1002.69 1002.82 1002.95 1002.69 1002.42 1000.58 1002.31 1003.35 1003.31 1003.33 1003.67 1004.11 1004.38 1002.72 1002.06 1002.36 1003.24 1003.56 1003.89 1004.44 1004.95 1005.15
1016.43 1015.63 1014.66 1013.51 1012.36 1011.54 1010.76 1010.15 1009.12 1008.52 1008.67 1008.25 1006.85 1006.10 1005.03 1003.22 1003.44 1001.63 1001.46 1001.44 1001.65 1001.47 1001.41 1001.47 1002.13 999.78 998.71 1000.35 1001.29 1001.63 1002.15 1002.32 1002.62 1002.66 1003.47 1003.45 1003.26 1002.59 1002.93 1003.39 1003.60 1003.46 1003.80 1004.00 1004.05
1016.59 1015.54 1014.62 1013.45 1012.32 1011.48 1011.35 1011.25 1010.97 1011.16 1008.86 1006.84 1006.70 1006.26 1005.56 1003.94 1002.74 1001.70 1001.54 1001.51 1000.99 1000.11 1000.74 1001.19 998.95 998.42 1000.75 1001.24 1001.46 1001.39 1001.41 1001.67 1002.31 1002.33 1002.78 1003.16 1002.66 1001.93 1002.23 1002.28 1002.44 1002.30 1002.67 1003.18 1003.11
1016.20 1015.18 1014.34 1013.17 1012.05 1011.73 1011.56 1011.18 1010.97 1010.90 1009.96 1007.27 1007.03 1006.03 1004.30 1003.21 1002.24 1001.19 1000.99 1000.23 1000.07 1000.18 999.55 998.44 996.47 999.94 1000.17 1000.50 1001.01 1000.07 999.93 1001.28 1001.84 1002.56 1002.82 1003.03 1002.28 1001.29 1000.47 1000.79 1000.99 1001.05 1001.16 1001.77 1002.05
1015.81 1014.67 1013.58 1012.66 1011.96 1011.91 1011.33 1010.80 1010.85 1010.76 1009.88 1007.91 1006.11 1004.84 1004.07 1002.44 1001.97 1000.57 1000.33 1000.28 999.70 999.14 999.63 999.07 999.18 998.47 999.18 999.13 999.70 999.67 999.04 1001.47 1002.53 1003.03 1002.57 1002.63 1001.21 1000.12 999.64 999.62 999.82 999.81 1000.09 1000.21 1000.66
1015.64 1014.54 1013.22 1012.21 1012.61 1012.34 1011.27 1010.78 1010.56 1010.65 1010.24 1007.77 1005.94 1004.93 1004.34 1003.14 1001.89 1000.56 1000.24 1000.23 999.51 999.04 999.19 997.45 997.67 998.30 998.11 997.03 999.70 999.21 1000.27 1001.53 1002.71 1003.53 1003.61 1002.90 1002.49 998.13 998.85 998.35 998.51 998.46 998.60 998.62 998.85
1015.38 1014.27 1013.62 1013.21 1012.91 1012.09 1011.18 1010.64 1010.62 1010.92 1010.08 1008.39 1007.25 1005.97 1005.34 1003.74 1002.37 1001.31 1000.44 1000.31 999.32 998.92 998.66 997.58 997.52 997.79 996.24 998.43 999.00 1000.01 1001.28 1002.11 1003.31 1004.13 1004.18 1001.06 1001.47 997.75 997.75 996.90 997.39 997.50 997.53 997.64 997.67
1015.26 1014.24 1013.60 1013.43 1013.18 1011.99 1011.36 1011.03 1011.55 1011.90 1010.85 1009.66 1007.92 1007.05 1006.15 1005.41 1003.51 1002.50 1001.62 1000.86 1000.44 999.22 999.01 998.16 997.42 997.00 996.83 998.22 998.92 999.63 1000.77 1002.66 1004.16 1004.54 1001.59 999.90 1000.73 996.72 996.13 995.66 995.75 995.82 995.85 995.96 996.49
1015.02 1014.16 1013.63 1013.32 1012.83 1012.18 1011.97 1012.40 1013.05 1012.50 1011.81 1010.83 1009.43 1008.39 1007.80 1007.44 1005.42 1004.31 1002.65 1002.05 1002.16 1001.10 999.98 998.91 997.76 996.99 996.45 996.48 997.43 998.44 999.63 1000.28 1001.57 1002.33 1000.57 1000.26 998.08 995.90 995.08 995.00 994.84 994.60 994.61 994.92 995.84
1015.14 1014.53 1014.09 1013.22 1012.72 1012.43 1012.95 1013.73 1013.74 1013.24 1012.45 1011.38 1009.94 1009.23 1009.10 1009.04 1008.39 1006.57 1005.52 1004.08 1004.08 1004.31 1004.01 1000.81 997.70 996.01 995.53 996.03 996.59 998.12 998.39 997.86 999.78 1000.60 1000.77 998.89 997.63 996.38 994.87 994.53 994.01 994.18 994.46 994.57 995.50
1016.52 1015.93 1014.74 1013.55 1012.98 1013.11 1014.02 1014.27 1013.63 1012.99 1012.53 1011.82 1011.51 1011.03 1010.47 1009.76 1009.31 1008.24 1006.70 1005.28 1005.41 1005.37 1005.16 1003.25 1000.31 996.67 995.81 995.83 995.90 995.97 996.76 998.64 999.11 999.90 999.69 998.09 997.00 995.60 994.45 993.56 993.57 993.90 994.20 994.92 995.36
1017.02 1016.53 1014.54 1013.60 1013.35 1014.27 1015.32 1014.91 1013.82 1012.86 1012.64 1012.30 1011.99 1011.90 1011.75 1011.21 1010.66 1009.57 1008.29 1006.83 1005.84 1005.22 1005.27 1004.77 1002.14 998.29 996.34 995.26 995.31 995.81 996.20 996.88 997.29 998.03 998.36 997.57 996.20 994.75 994.07 993.53 993.53 993.45 994.34 994.81 995.06
1017.84 1017.27 1014.78 1014.28 1014.87 1015.80 1015.87 1015.44 1014.28 1013.06 1012.59 1012.39 1012.12 1012.02 1011.99 1011.74 1011.38 1010.47 1009.40 1008.57 1007.24 1007.07 1005.79 1005.22 1003.58 1000.42 997.62 995.62 994.73 994.70 995.15 996.01 996.17 997.25 997.47 996.96 995.22 994.00 994.06 993.65 993.73 993.98 994.69 995.11 995.49
1018.65 1017.91 1015.56 1015.52 1016.45 1016.71 1015.91 1015.25 1014.47 1013.52 1013.00 1012.67 1012.48 1012.13 1011.88 1011.91 1011.90 1010.78 1009.08 1008.11 1007.66 1007.66 1006.93 1006.06 1004.27 1001.83 998.47 997.23 995.91 995.51 995.09 995.37 995.59 995.94 995.73 995.84 994.80 994.34 994.46 994.42 994.41 994.95 995.60 996.03 996.40
1019.24 1019.01 1017.51 1017.16 1017.56 1017.78 1017.06 1015.43 1014.68 1013.66 1013.04 1012.75 1012.53 1012.19 1012.20 1011.59 1011.29 1010.76 1009.44 1008.12 1007.51 1007.48 1006.70 1006.26 1004.83 1003.15 1000.86 999.11 998.93 997.45 995.98 995.42 995.26 995.25 995.47 994.58 995.29 994.82 994.69 995.03 995.49 995.58 995.91 996.69 997.14
1019.81 1019.95 1019.66 1018.88 1017.90 1018.21 1017.83 1016.39 1015.29 1014.27 1013.52 1012.95 1012.44 1012.43 1012.37 1011.15 1010.13 1009.40 1008.78 1007.84 1007.29 1006.31 1006.68 1006.61 1005.54 1003.80 1001.50 999.87 999.17 998.37 997.35 996.15 995.75 995.45 995.52 995.91 996.64 997.39 996.63 995.98 995.68 995.73 996.01 996.53 997.57
1019.99 1019.87 1019.58 1019.06 1018.57 1018.40 1017.54 1016.77 1015.98 1015.03 1014.51 1013.29 1013.15 1011.94 1011.69 1011.23 1010.35 1008.74 1008.42 1007.91 1007.79 1007.16 1007.46 1007.01 1005.92 1004.24 1001.18 998.40 998.74 998.87 998.05 997.06 997.08 996.82 997.38 997.68 999.00 999.88 998.71 997.51 997.24 997.31 997.95 998.18 998.19
1019.76 1019.73 1019.74 1018.84 1018.74 1018.52 1017.76 1017.06 1016.21 1015.51 1013.90 1013.22 1012.83 1012.15 1010.95 1009.76 1008.81 1008.15 1007.52 1007.06 1007.12 1006.88 1006.82 1007.00 1006.04 1003.87 1001.41 999.82 998.72 999.67 1000.44 999.40 1000.20 1000.63 1001.03 1001.43 1002.24 1001.75 1000.56 1000.24 1000.20 1000.15 999.02 999.27 998.90
Thickness
5619 5617 5616 5614 5612 5611 5612 5611 5611 5610 5609 5612 5613 5614 5616 5619 5622 5627 5642 5654 5644 5641 5640 5636 5631 5628 5625 5619 5620 5619 5600 5608 5626 5630 5651 5655 5651 5668 5672 5662 5669 5675 5679 5683 5680
5610 5609 5607 5605 5604 5602 5600 5598 5601 5602 5602 5601 5605 5609 5609 5611 5618 5635 5658 5651 5648 5640 5631 5629 5623 5618 5613 5617 5615 5605 5602 5629 5647 5656 5652 5657 5659 5666 5663 5663 5664 5669 5669 5674 5674
5603 5599 5597 5596 5596 5595 5594 5594 5593 5592 5594 5595 5595 5596 5599 5600 5608 5662 5663 5657 5653 5643 5637 5632 5622 5613 5602 5609 5614 5619 5628 5649 5654 5658 5657 5656 5657 5666 5664 5656 5675 5675 5665 5667 5669
5593 5593 5590 5588 5586 5584 5582 5581 5582 5584 5584 5585 5584 5586 5584 5587 5596 5664 5671 5659 5655 5643 5629 5623 5613 5602 5602 5604 5617 5610 5642 5643 5655 5655 5653 5652 5660 5659 5665 5681 5685 5688 5677 5667 5669
5581 5579 5577 5576 5574 5573 5573 5574 5574 5575 5576 5575 5573 5572 5572 5584 5621 5656 5654 5652 5652 5636 5633 5629 5619 5618 5608 5610 5610 5606 5642 5646 5654 5648 5652 5653 5650 5655 5661 5680 5678 5677 5672 5671 5673
5574 5574 5572 5569 5565 5561 5561 5562 5565 5567 5568 5566 5564 5559 5555 5577 5621 5634 5635 5634 5633 5625 5624 5625 5626 5636 5624 5615 5612 5621 5621 5636 5640 5644 5641 5641 5650 5648 5667 5676 5671 5671 5674 5676 5678
5565 5565 5562 5559 5555 5551 5549 5548 5550 5555 5563 5556 5552 5546 5553 5597 5603 5615 5612 5620 5620 5621 5617 5625 5629 5621 5624 5614 5623 5622 5612 5610 5621 5633 5634 5633 5634 5653 5675 5670 5667 5667 5674 5675 5677
5556 5556 5553 5549 5545 5540 5536 5535 5537 5544 5545 5548 5545 5539 5554 5576 5583 5589 5592 5596 5602 5606 5609 5617 5611 5611 5608 5615 5607 5601 5604 5604 5628 5621 5632 5635 5652 5672 5672 5666 5666 5668 5668 5671 5676
5548 5544 5540 5535 5531 5524 5520 5519 5522 5527 5525 5530 5528 5519 5533 5558 5551 5564 5568 5573 5576 5585 5591 5597 5588 5589 5596 5590 5584 5583 5607 5599 5625 5620 5623 5622 5645 5674 5670 5667 5668 5672 5669 5670 5671
5538 5532 5524 5518 5511 5504 5497 5495 5498 5498 5492 5497 5494 5486 5509 5510 5519 5533 5548 5557 5557 5563 5566 5568 5566 5569 5571 5576 5586 5585 5585 5600 5613 5620 5618 5611 5635 5663 5663 5656 5664 5667 5659 5664 5670
5523 5514 5506 5497 5488 5476 5469 5462 5459 5454 5441 5427 5432 5436 5458 5479 5481 5510 5521 5530 5536 5547 5549 5560 5551 5566 5597 5593 5599 5600 5605 5608 5612 5621 5617 5619 5624 5647 5646 5640 5647 5653 5652 5666 5673
5506 5495 5484 5472 5460 5447 5430 5409 5396 5383 5401 5407 5405 5405 5412 5435 5452 5480 5490 5500 5513 5532 5550 5527 5548 5595 5585 5578 5584 5595 5594 5595 5605 5615 5611 5608 5614 5641 5642 5642 5648 5660 5653 5658 5670
5492 5479 5465 5453 5440 5421 5401 5386 5372 5362 5363 5377 5372 5378 5399 5413 5438 5460 5464 5486 5495 5506 5526 5543 5592 5569 5567 5567 5568 5588 5596 5592 5599 5597 5597 5599 5598 5626 5646 5645 5652 5659 5666 5666 5671
5479 5464 5452 5440 5425 5401 5383 5374 5358 5345 5345 5364 5376 5384 5390 5405 5415 5441 5448 5461 5472 5501 5508 5517 5550 5561 5554 5559 5573 5576 5605 5589 5577 5581 5593 5593 5597 5620 5641 5643 5646 5662 5664 5672 5673
5464 5448 5435 5420 5400 5380 5373 5361 5352 5342 5300 5365 5375 5380 5383 5396 5409 5428 5429 5433 5453 5479 5492 5522 5538 5532 5538 5569 5558 5577 5573 5566 5560 5558 5566 5575 5559 5628 5632 5646 5656 5661 5670 5679 5685
5452 5437 5420 5403 5383 5373 5364 5357 5348 5339 5280 5355 5359 5362 5365 5387 5402 5413 5421 5426 5445 5465 5482 5513 5522 5524 5559 5540 5550 5547 5537 5533 5525 5526 5520 5587 5569 5612 5630 5650 5652 5661 5666 5677 5685
5436 5421 5408 5389 5373 5368 5358 5350 5326 5297 5349 5345 5348 5355 5362 5364 5385 5397 5412 5423 5423 5442 5456 5483 5497 5517 5527 5515 5524 5533 5534 5509 5492 5483 5553 5590 5553 5605 5638 5649 5660 5672 5679 5683 5683
5424 5410 5396 5382 5369 5361 5350 5331 5292 5341 5323 5340 5342 5348 5347 5345 5367 5376 5403 5415 5402 5413 5444 5466 5471 5497 5516 5524 5525 5527 5525 5500 5516 5503 5564 5546 5553 5595 5637 5649 5659 5666 5682 5684 5674
5421 5404 5389 5381 5368 5356 5335 5297 5322 5318 5317 5327 5340 5337 5336 5335 5332 5354 5366 5388 5376 5371 5372 5416 5469 5499 5514 5522 5528 5504 5512 5557 5520 5509 5490 5543 5561 5588 5626 5634 5648 5663 5666 5676 5666
5405 5386 5378 5376 5364 5345 5319 5325 5323 5331 5325 5327 5309 5315 5307 5322 5315 5330 5347 5362 5365 5371 5368 5389 5422 5475 5499 5510 5517 5521 5544 5512 5514 5514 5535 5546 5561 5585 5617 5644 5646 5652 5658 5658 5657
5394 5376 5378 5372 5361 5336 5300 5296 5322 5331 5329 5320 5305 5308 5304 5307 5308 5312 5332 5356 5363 5370 5373 5363 5403 5464 5480 5493 5506 5507 5510 5515 5536 5525 5541 5556 5555 5585 5611 5633 5641 5650 5651 5652 5653
5384 5359 5373 5365 5346 5312 5300 5304 5322 5325 5327 5322 5322 5312 5298 5304 5300 5297 5316 5329 5347 5347 5358 5369 5382 5423 5461 5488 5509 5524 5517 5526 5525 5510 5513 5490 5551 5592 5598 5619 5631 5634 5635 5640 5637
5378 5369 5364 5348 5311 5307 5312 5315 5316 5320 5316 5317 5317 5318 5310 5304 5292 5300 5318 5337 5338 5339 5344 5361 5380 5402 5467 5473 5491 5498 5514 5520 5521 5541 5540 5545 5554 5587 5583 5594 5609 5611 5608 5608 5611
5363 5346 5347 5332 5319 5296 5293 5313 5315 5324 5321 5317 5316 5308 5294 5304 5303 5288 5306 5329 5336 5337 5357 5357 5376 5398 5427 5451 5437 5464 5501 5515 5524 5525 5539 5552 5565 5583 5597 5593 5587 5593 5592 5587 5591
5349 5328 5327 5312 5328 5304 5291 5305 5312 5316 5316 5312 5314 5305 5297 5298 5303 5304 5313 5325 5337 5352 5345 5347 5355 5387 5410 5428 5434 5440 5461 5504 5515 5531 5532 5557 5548 5554 5557 5575 5580 5578 5578 5580 5577
5352 5337 5330 5319 5313 5308 5301 5297 5306 5308 5306 5309 5299 5314 5303 5290 5294 5300 5314 5327 5328 5330 5322 5333 5339 5375 5405 5444 5441 5447 5477 5497 5509 5524 5524 5528 5513 5479 5507 5545 5566 5561 5552 5559 5562
5355 5341 5328 5319 5312 5311 5300 5299 5301 5301 5316 5314 5308 5301 5306 5315 5319 5320 5327 5335 5335 5334 5337 5337 5339 5384 5404 5439 5469 5467 5426 5453 5437 5420 5449 5477 5452 5462 5477 5489 5498 5509 5539 5543 5549